Moses Lake, WA

4:50 PM PST on January 17, 2018 (GMT -0800)
Grant County International

Weather History for KMWH - June, 2013

Change the Weather History Date:

Thursday, June 13, 2013

  Actual Average Record
Temperature  
Mean Temperature 62 °F 65 °F  
Max Temperature 75 °F 79 °F 93 °F (1986)
Min Temperature 49 °F 52 °F 43 °F (2001)
Degree Days  
Heating Degree Days 3 2  
Month to date heating degree days 18 33  
Since 1 June heating degree days 18 33  
Since 1 July heating degree days 5299 5860  
Cooling Degree Days 0 2  
Month to date cooling degree days 42 26  
Year to date cooling degree days 92 51  
Since 1 June cooling degree days 42 26  
Growing Degree Days 12 (Base 50)    
Moisture  
Dew Point 38 °F    
Average Humidity 48    
Maximum Humidity 71    
Minimum Humidity 24    
Precipitation  
Precipitation 0.02 in 0.03 in 0.44 in (1984)
Month to date precipitation 0.12 0.41  
Year to date precipitation 2.20 4.43  
Sea Level Pressure  
Sea Level Pressure 30.04 in    
Wind  
Wind Speed 6 mph (WSW)    
Max Wind Speed 21 mph    
Max Gust Speed 28 mph    
Visibility 10 miles    
Events      
T = Trace of Precipitation, MM = Missing Value Source: NWS Daily Summary

Daily Weather History Graph

Daily Weather History Graph

Search for Another Location

Airport or City:

Trip Planner

Search our weather history database for the weather conditions in past years. The results will help you decide how hot, cold, wet, or windy it might be!

Date:

Astronomy

Jun. 13, 2013 Rise Set
Actual Time 5:00 AM PDT 8:54 PM PDT
Civil Twilight 4:20 AM PDT 9:34 PM PDT
Nautical Twilight 3:26 AM PDT 10:29 PM PDT
Astronomical Twilight 2:03 AM PDT 11:52 PM PDT
Moon 9:58 AM PDT (6/13) 11:44 PM PDT (6/13)
Length of Visible Light 17h 13m
Length of Day
15h 53m
Waxing Crescent, 22% of the Moon is Illuminated
Jun 13
Waxing Crescent
Jun 16
First Quarter
Jun 23
Full
Jun 29
Last Quarter
Jul 8
New

Hourly Weather History & Observations

Time (PDT) Temp. Dew Point Humidity Pressure Visibility Wind Dir Wind Speed Gust Speed Precip Events Conditions
12:52 AM 55.0 °F 39.9 °F 57% 30.02 in 10.0 mi SW 5.8 mph - N/A   Clear
1:52 AM 54.0 °F 36.0 °F 51% 30.02 in 10.0 mi West 3.5 mph - N/A   Clear
2:52 AM 53.1 °F 41.0 °F 64% 30.02 in 10.0 mi WSW 6.9 mph - N/A   Scattered Clouds
3:52 AM 51.1 °F 39.9 °F 66% 30.02 in 10.0 mi West 4.6 mph - N/A   Clear
4:52 AM 52.0 °F 36.0 °F 54% 30.03 in 10.0 mi West 5.8 mph - N/A   Clear
5:52 AM 51.1 °F 42.1 °F 71% 30.04 in 10.0 mi South 3.5 mph - N/A   Clear
6:52 AM 53.1 °F 39.0 °F 59% 30.05 in 10.0 mi Calm Calm - N/A   Clear
7:52 AM 57.9 °F 37.9 °F 47% 30.05 in 10.0 mi Calm Calm - N/A   Clear
8:52 AM 62.1 °F 36.0 °F 38% 30.06 in 10.0 mi South 3.5 mph - N/A   Clear
9:52 AM 64.9 °F 36.0 °F 34% 30.06 in 10.0 mi Variable 6.9 mph - N/A   Clear
10:52 AM 66.0 °F 37.9 °F 36% 30.06 in 10.0 mi Variable 5.8 mph - N/A   Clear
11:52 AM 68.0 °F 37.9 °F 33% 30.05 in 10.0 mi SSW 6.9 mph - N/A   Clear
12:52 PM 70.0 °F 37.9 °F 31% 30.04 in 10.0 mi South 11.5 mph 17.3 mph N/A   Scattered Clouds
1:52 PM 71.1 °F 37.0 °F 29% 30.03 in 10.0 mi South 6.9 mph 18.4 mph N/A   Clear
2:52 PM 71.1 °F 36.0 °F 28% 30.03 in 10.0 mi SSW 3.5 mph - N/A   Partly Cloudy
3:52 PM 73.0 °F 35.1 °F 25% 30.02 in 10.0 mi Variable 6.9 mph - N/A   Clear
4:52 PM 71.1 °F 32.0 °F 24% 30.03 in 10.0 mi NNW 12.7 mph 20.7 mph N/A   Partly Cloudy
5:52 PM 64.0 °F 41.0 °F 43% 30.05 in 9.0 mi West 9.2 mph - 0.01 in   Overcast
6:52 PM 66.0 °F 42.1 °F 42% 30.04 in 10.0 mi ESE 4.6 mph - 0.01 in   Clear
7:52 PM 66.0 °F 41.0 °F 40% 30.04 in 10.0 mi Calm Calm - N/A   Clear
8:52 PM 64.0 °F 41.0 °F 43% 30.04 in 10.0 mi WSW 6.9 mph - N/A   Clear
9:52 PM 60.1 °F 41.0 °F 49% 30.05 in 10.0 mi West 11.5 mph - N/A   Clear
10:52 PM 55.9 °F 39.0 °F 53% 30.06 in 10.0 mi NW 8.1 mph - N/A   Clear
11:52 PM 57.0 °F 39.9 °F 53% 30.07 in 10.0 mi WSW 4.6 mph - N/A   Clear